QPF
0.00 0.00 0.00 0.00 0.00 0.00 0.00 0.00 0.00 0.00 0.00 0.00 0.00 0.00 0.00 0.00 0.00 0.00 0.00 0.00 0.00 0.00 0.00 0.00 0.00 0.00 0.00 0.00 0.00 0.00 0.00 0.01 0.01 0.01 0.01 0.01 0.02 0.02 0.02 0.02 0.02 0.02 0.02
0.00 0.00 0.00 0.00 0.00 0.00 0.00 0.00 0.00 0.00 0.00 0.00 0.00 0.00 0.00 0.00 0.00 0.00 0.00 0.00 0.00 0.00 0.00 0.00 0.00 0.00 0.00 0.00 0.00 0.00 0.00 0.00 0.00 0.00 0.00 0.01 0.01 0.01 0.01 0.01 0.02 0.02 0.02
0.00 0.00 0.00 0.00 0.00 0.00 0.00 0.00 0.00 0.00 0.00 0.00 0.00 0.00 0.00 0.00 0.00 0.00 0.00 0.00 0.00 0.00 0.00 0.00 0.00 0.00 0.00 0.00 0.00 0.00 0.00 0.00 0.00 0.00 0.00 0.00 0.00 0.01 0.01 0.01 0.01 0.01 0.01
0.00 0.00 0.00 0.00 0.00 0.00 0.00 0.00 0.00 0.00 0.00 0.00 0.00 0.00 0.00 0.00 0.00 0.00 0.00 0.00 0.00 0.00 0.00 0.00 0.00 0.00 0.00 0.00 0.00 0.00 0.00 0.00 0.00 0.00 0.00 0.00 0.00 0.00 0.00 0.01 0.01 0.01 0.01
0.00 0.00 0.00 0.00 0.00 0.00 0.00 0.00 0.00 0.00 0.00 0.00 0.00 0.00 0.00 0.00 0.00 0.00 0.00 0.00 0.00 0.00 0.00 0.00 0.00 0.00 0.00 0.00 0.00 0.00 0.00 0.00 0.00 0.00 0.00 0.00 0.00 0.00 0.00 0.01 0.01 0.01 0.01
0.00 0.00 0.00 0.00 0.00 0.00 0.00 0.00 0.00 0.00 0.00 0.00 0.00 0.00 0.00 0.00 0.00 0.00 0.00 0.00 0.00 0.00 0.00 0.00 0.00 0.00 0.00 0.00 0.00 0.00 0.00 0.00 0.00 0.00 0.00 0.00 0.00 0.00 0.00 0.01 0.01 0.01 0.01
0.00 0.00 0.00 0.00 0.00 0.00 0.00 0.00 0.00 0.00 0.00 0.00 0.00 0.00 0.00 0.00 0.00 0.00 0.00 0.00 0.00 0.00 0.00 0.00 0.00 0.00 0.00 0.00 0.00 0.00 0.00 0.00 0.00 0.00 0.00 0.00 0.00 0.01 0.01 0.01 0.01 0.01 0.01
0.00 0.00 0.00 0.00 0.00 0.00 0.00 0.00 0.00 0.00 0.00 0.00 0.00 0.00 0.00 0.00 0.00 0.00 0.00 0.00 0.00 0.00 0.00 0.00 0.00 0.00 0.00 0.00 0.00 0.00 0.00 0.00 0.00 0.00 0.00 0.00 0.01 0.01 0.01 0.02 0.02 0.02 0.02
0.00 0.00 0.00 0.00 0.00 0.00 0.00 0.00 0.00 0.00 0.00 0.00 0.00 0.00 0.00 0.00 0.00 0.00 0.00 0.00 0.00 0.00 0.00 0.00 0.00 0.00 0.00 0.00 0.00 0.00 0.00 0.00 0.00 0.00 0.00 0.01 0.01 0.01 0.02 0.02 0.02 0.02 0.03
0.00 0.00 0.00 0.00 0.00 0.00 0.00 0.00 0.00 0.00 0.00 0.00 0.00 0.00 0.00 0.00 0.00 0.00 0.00 0.00 0.00 0.00 0.00 0.00 0.00 0.00 0.00 0.00 0.00 0.00 0.00 0.00 0.00 0.00 0.00 0.01 0.01 0.02 0.02 0.02 0.03 0.03 0.03
0.00 0.00 0.00 0.00 0.00 0.00 0.00 0.00 0.00 0.00 0.00 0.00 0.00 0.00 0.00 0.00 0.00 0.00 0.00 0.00 0.00 0.00 0.00 0.00 0.00 0.00 0.00 0.00 0.00 0.00 0.00 0.00 0.00 0.00 0.00 0.01 0.01 0.01 0.02 0.02 0.02 0.02 0.02
0.00 0.00 0.00 0.00 0.00 0.00 0.00 0.00 0.00 0.00 0.00 0.00 0.00 0.00 0.00 0.00 0.00 0.00 0.00 0.00 0.00 0.00 0.00 0.00 0.00 0.00 0.00 0.00 0.00 0.00 0.00 0.00 0.00 0.00 0.00 0.00 0.01 0.01 0.01 0.02 0.02 0.02 0.02
0.00 0.00 0.00 0.00 0.00 0.00 0.00 0.00 0.00 0.00 0.00 0.00 0.00 0.00 0.00 0.00 0.00 0.00 0.00 0.00 0.00 0.00 0.00 0.00 0.00 0.00 0.00 0.00 0.00 0.00 0.00 0.00 0.00 0.00 0.00 0.00 0.01 0.01 0.01 0.02 0.02 0.02 0.02
0.00 0.00 0.00 0.00 0.00 0.00 0.00 0.00 0.00 0.00 0.00 0.00 0.00 0.00 0.00 0.00 0.00 0.00 0.00 0.00 0.00 0.00 0.00 0.00 0.00 0.00 0.00 0.00 0.00 0.00 0.00 0.00 0.00 0.00 0.00 0.00 0.01 0.01 0.01 0.02 0.02 0.02 0.02
0.00 0.00 0.00 0.00 0.00 0.00 0.00 0.00 0.00 0.00 0.00 0.00 0.00 0.00 0.00 0.00 0.00 0.00 0.00 0.00 0.00 0.00 0.00 0.00 0.00 0.00 0.00 0.00 0.00 0.00 0.00 0.00 0.00 0.00 0.00 0.00 0.01 0.01 0.02 0.02 0.02 0.02 0.02
0.00 0.00 0.00 0.00 0.00 0.00 0.00 0.00 0.00 0.00 0.00 0.00 0.00 0.00 0.00 0.00 0.00 0.00 0.00 0.00 0.00 0.00 0.00 0.00 0.00 0.00 0.00 0.00 0.00 0.00 0.00 0.00 0.00 0.00 0.00 0.00 0.01 0.01 0.02 0.02 0.02 0.03 0.03
0.00 0.00 0.00 0.00 0.00 0.00 0.00 0.00 0.00 0.00 0.00 0.00 0.00 0.00 0.00 0.00 0.00 0.00 0.00 0.00 0.00 0.00 0.00 0.00 0.00 0.00 0.00 0.00 0.00 0.00 0.00 0.00 0.00 0.00 0.00 0.01 0.01 0.02 0.02 0.02 0.03 0.03 0.03
0.00 0.00 0.00 0.00 0.00 0.00 0.00 0.00 0.00 0.00 0.00 0.00 0.00 0.00 0.00 0.00 0.00 0.00 0.00 0.00 0.00 0.00 0.00 0.00 0.00 0.00 0.00 0.00 0.00 0.00 0.00 0.00 0.00 0.00 0.01 0.01 0.01 0.02 0.02 0.02 0.03 0.03 0.04
0.00 0.00 0.00 0.00 0.00 0.00 0.00 0.00 0.00 0.00 0.00 0.00 0.00 0.00 0.00 0.00 0.00 0.00 0.00 0.00 0.00 0.00 0.00 0.00 0.00 0.00 0.00 0.00 0.00 0.00 0.00 0.00 0.00 0.00 0.00 0.00 0.01 0.01 0.02 0.02 0.03 0.03 0.03
0.00 0.00 0.00 0.00 0.00 0.00 0.00 0.00 0.00 0.00 0.00 0.00 0.00 0.00 0.00 0.00 0.00 0.00 0.00 0.00 0.00 0.00 0.00 0.01 0.01 0.01 0.01 0.00 0.01 0.01 0.01 0.01 0.01 0.00 0.00 0.01 0.01 0.01 0.01 0.01 0.02 0.02 0.02
0.00 0.00 0.00 0.00 0.00 0.00 0.00 0.00 0.00 0.00 0.00 0.00 0.00 0.00 0.00 0.00 0.00 0.00 0.00 0.00 0.00 0.01 0.01 0.01 0.01 0.01 0.01 0.01 0.01 0.02 0.02 0.01 0.01 0.01 0.01 0.00 0.00 0.00 0.00 0.01 0.01 0.01 0.02
0.00 0.00 0.00 0.00 0.00 0.00 0.00 0.00 0.00 0.00 0.00 0.00 0.00 0.00 0.00 0.00 0.00 0.00 0.00 0.00 0.01 0.01 0.02 0.02 0.02 0.02 0.01 0.01 0.02 0.02 0.03 0.03 0.02 0.01 0.01 0.01 0.01 0.01 0.00 0.00 0.01 0.02 0.03
0.00 0.00 0.00 0.00 0.00 0.00 0.00 0.00 0.00 0.00 0.00 0.00 0.00 0.00 0.00 0.00 0.00 0.00 0.00 0.00 0.00 0.01 0.02 0.02 0.03 0.02 0.02 0.02 0.02 0.03 0.03 0.04 0.03 0.02 0.02 0.02 0.01 0.01 0.01 0.01 0.02 0.03 0.04
0.00 0.00 0.00 0.00 0.00 0.00 0.00 0.00 0.00 0.00 0.00 0.00 0.00 0.00 0.00 0.00 0.00 0.00 0.00 0.00 0.01 0.01 0.01 0.02 0.02 0.02 0.02 0.02 0.04 0.05 0.06 0.06 0.03 0.01 0.02 0.03 0.01 0.01 0.01 0.01 0.01 0.02 0.03
0.00 0.00 0.00 0.00 0.00 0.00 0.00 0.00 0.00 0.00 0.00 0.00 0.00 0.00 0.00 0.00 0.00 0.01 0.01 0.01 0.01 0.01 0.01 0.02 0.03 0.03 0.04 0.05 0.05 0.05 0.06 0.06 0.04 0.01 0.01 0.02 0.01 0.01 0.01 0.01 0.01 0.01 0.02
0.00 0.00 0.00 0.00 0.00 0.00 0.00 0.00 0.00 0.00 0.00 0.00 0.00 0.00 0.00 0.00 0.01 0.01 0.02 0.02 0.02 0.01 0.01 0.01 0.02 0.02 0.02 0.01 0.02 0.02 0.02 0.04 0.03 0.02 0.01 0.02 0.02 0.03 0.03 0.01 0.01 0.01 0.01
MSLP
1021.12 1021.26 1021.32 1021.33 1021.34 1021.35 1021.37 1021.41 1021.46 1021.48 1021.46 1021.39 1021.28 1021.14 1021.00 1020.89 1020.84 1020.85 1020.93 1021.05 1021.19 1021.32 1021.40 1021.42 1021.36 1021.23 1021.04 1020.83 1020.59 1020.35 1020.13 1019.92 1019.72 1019.53 1019.35 1019.18 1019.01 1018.83 1018.66 1018.46 1018.26 1018.05 1017.82
1020.74 1020.91 1021.00 1021.06 1021.11 1021.15 1021.20 1021.26 1021.31 1021.34 1021.33 1021.27 1021.18 1021.06 1020.94 1020.85 1020.80 1020.82 1020.90 1021.03 1021.18 1021.33 1021.44 1021.50 1021.50 1021.42 1021.28 1021.09 1020.87 1020.63 1020.39 1020.15 1019.91 1019.70 1019.49 1019.30 1019.11 1018.92 1018.73 1018.51 1018.28 1018.02 1017.76
1020.29 1020.49 1020.65 1020.77 1020.88 1020.99 1021.09 1021.18 1021.26 1021.31 1021.31 1021.28 1021.20 1021.11 1021.00 1020.92 1020.87 1020.87 1020.93 1021.04 1021.17 1021.31 1021.44 1021.53 1021.57 1021.55 1021.47 1021.32 1021.13 1020.90 1020.65 1020.39 1020.12 1019.87 1019.62 1019.40 1019.18 1018.97 1018.75 1018.52 1018.26 1017.98 1017.69
1019.83 1020.08 1020.31 1020.52 1020.71 1020.89 1021.06 1021.20 1021.31 1021.39 1021.42 1021.41 1021.36 1021.29 1021.20 1021.11 1021.05 1021.03 1021.04 1021.10 1021.19 1021.30 1021.42 1021.52 1021.59 1021.62 1021.59 1021.50 1021.35 1021.14 1020.89 1020.60 1020.30 1020.01 1019.72 1019.45 1019.19 1018.95 1018.70 1018.45 1018.18 1017.89 1017.58
1019.43 1019.75 1020.05 1020.35 1020.63 1020.89 1021.12 1021.32 1021.47 1021.58 1021.64 1021.66 1021.64 1021.59 1021.51 1021.42 1021.34 1021.28 1021.24 1021.23 1021.26 1021.32 1021.40 1021.50 1021.59 1021.65 1021.66 1021.62 1021.51 1021.32 1021.08 1020.78 1020.45 1020.10 1019.76 1019.43 1019.13 1018.84 1018.57 1018.29 1018.01 1017.71 1017.41
1019.16 1019.53 1019.91 1020.29 1020.65 1020.98 1021.27 1021.51 1021.70 1021.84 1021.93 1021.98 1021.99 1021.96 1021.91 1021.83 1021.73 1021.63 1021.53 1021.45 1021.41 1021.40 1021.43 1021.50 1021.58 1021.66 1021.70 1021.69 1021.61 1021.45 1021.21 1020.90 1020.54 1020.15 1019.76 1019.37 1019.01 1018.68 1018.37 1018.06 1017.77 1017.46 1017.15
1019.03 1019.45 1019.89 1020.33 1020.75 1021.13 1021.46 1021.73 1021.95 1022.12 1022.24 1022.32 1022.37 1022.38 1022.36 1022.30 1022.19 1022.07 1021.92 1021.78 1021.66 1021.58 1021.54 1021.55 1021.60 1021.67 1021.72 1021.72 1021.67 1021.52 1021.29 1020.97 1020.59 1020.16 1019.72 1019.29 1018.87 1018.49 1018.14 1017.80 1017.48 1017.17 1016.86
1019.02 1019.48 1019.95 1020.43 1020.89 1021.29 1021.64 1021.93 1022.17 1022.36 1022.51 1022.64 1022.74 1022.80 1022.82 1022.79 1022.71 1022.57 1022.40 1022.20 1022.01 1021.85 1021.74 1021.68 1021.67 1021.70 1021.72 1021.72 1021.67 1021.53 1021.30 1020.98 1020.59 1020.14 1019.67 1019.20 1018.74 1018.31 1017.92 1017.55 1017.20 1016.86 1016.54
1019.07 1019.55 1020.05 1020.54 1021.01 1021.42 1021.77 1022.07 1022.32 1022.53 1022.72 1022.89 1023.05 1023.18 1023.26 1023.29 1023.24 1023.12 1022.93 1022.70 1022.45 1022.21 1022.01 1021.87 1021.79 1021.75 1021.72 1021.69 1021.62 1021.47 1021.25 1020.93 1020.54 1020.10 1019.61 1019.12 1018.64 1018.17 1017.74 1017.33 1016.95 1016.58 1016.23
1019.11 1019.61 1020.12 1020.62 1021.07 1021.48 1021.83 1022.13 1022.38 1022.62 1022.85 1023.07 1023.30 1023.50 1023.65 1023.74 1023.75 1023.65 1023.47 1023.21 1022.92 1022.62 1022.34 1022.10 1021.93 1021.80 1021.71 1021.63 1021.52 1021.36 1021.13 1020.83 1020.46 1020.02 1019.55 1019.06 1018.56 1018.07 1017.60 1017.16 1016.73 1016.33 1015.95
1019.09 1019.61 1020.12 1020.62 1021.07 1021.46 1021.81 1022.11 1022.38 1022.63 1022.90 1023.18 1023.47 1023.74 1023.96 1024.12 1024.18 1024.12 1023.95 1023.69 1023.36 1023.01 1022.66 1022.34 1022.07 1021.85 1021.68 1021.53 1021.37 1021.19 1020.96 1020.67 1020.32 1019.91 1019.46 1018.98 1018.48 1017.98 1017.48 1017.00 1016.53 1016.09 1015.67
1018.96 1019.51 1020.04 1020.53 1020.98 1021.38 1021.72 1022.02 1022.31 1022.60 1022.90 1023.22 1023.56 1023.88 1024.16 1024.37 1024.48 1024.46 1024.31 1024.06 1023.72 1023.32 1022.91 1022.52 1022.17 1021.87 1021.61 1021.39 1021.19 1020.98 1020.74 1020.46 1020.13 1019.75 1019.33 1018.86 1018.37 1017.85 1017.33 1016.81 1016.30 1015.82 1015.35
1018.74 1019.32 1019.87 1020.38 1020.83 1021.24 1021.59 1021.91 1022.21 1022.52 1022.85 1023.20 1023.56 1023.92 1024.23 1024.47 1024.61 1024.62 1024.50 1024.25 1023.91 1023.50 1023.06 1022.62 1022.21 1021.84 1021.52 1021.24 1020.98 1020.73 1020.48 1020.20 1019.88 1019.52 1019.12 1018.66 1018.17 1017.64 1017.09 1016.54 1015.99 1015.46 1014.96
1018.43 1019.05 1019.63 1020.16 1020.64 1021.06 1021.43 1021.76 1022.08 1022.41 1022.75 1023.11 1023.48 1023.83 1024.15 1024.40 1024.55 1024.57 1024.47 1024.24 1023.91 1023.51 1023.07 1022.62 1022.18 1021.77 1021.39 1021.06 1020.76 1020.48 1020.20 1019.90 1019.58 1019.22 1018.82 1018.36 1017.86 1017.31 1016.73 1016.13 1015.54 1014.97 1014.44
1018.07 1018.73 1019.35 1019.91 1020.41 1020.85 1021.24 1021.60 1021.93 1022.26 1022.60 1022.94 1023.29 1023.62 1023.91 1024.14 1024.28 1024.30 1024.21 1024.01 1023.72 1023.35 1022.94 1022.50 1022.06 1021.64 1021.25 1020.88 1020.54 1020.22 1019.91 1019.58 1019.24 1018.86 1018.43 1017.95 1017.42 1016.84 1016.22 1015.58 1014.95 1014.34 1013.79
1017.68 1018.38 1019.03 1019.62 1020.15 1020.61 1021.02 1021.39 1021.73 1022.06 1022.38 1022.69 1023.00 1023.29 1023.53 1023.72 1023.83 1023.84 1023.76 1023.59 1023.34 1023.03 1022.67 1022.27 1021.87 1021.47 1021.08 1020.70 1020.34 1019.98 1019.63 1019.26 1018.87 1018.45 1017.98 1017.46 1016.88 1016.25 1015.58 1014.90 1014.23 1013.59 1013.01
1017.30 1018.01 1018.67 1019.29 1019.83 1020.32 1020.75 1021.13 1021.47 1021.79 1022.08 1022.36 1022.62 1022.85 1023.04 1023.17 1023.24 1023.24 1023.17 1023.03 1022.83 1022.58 1022.29 1021.96 1021.62 1021.26 1020.89 1020.52 1020.14 1019.75 1019.35 1018.94 1018.50 1018.02 1017.49 1016.91 1016.27 1015.59 1014.87 1014.15 1013.43 1012.77 1012.16
1016.91 1017.62 1018.29 1018.91 1019.46 1019.96 1020.40 1020.79 1021.14 1021.44 1021.72 1021.96 1022.17 1022.35 1022.48 1022.56 1022.60 1022.58 1022.51 1022.40 1022.25 1022.06 1021.84 1021.59 1021.31 1021.00 1020.67 1020.31 1019.93 1019.52 1019.09 1018.63 1018.13 1017.59 1017.00 1016.35 1015.66 1014.92 1014.16 1013.39 1012.64 1011.95 1011.32
1016.51 1017.20 1017.86 1018.47 1019.03 1019.53 1019.98 1020.38 1020.72 1021.03 1021.29 1021.51 1021.69 1021.82 1021.91 1021.96 1021.96 1021.92 1021.86 1021.76 1021.65 1021.51 1021.35 1021.17 1020.95 1020.70 1020.41 1020.07 1019.70 1019.28 1018.82 1018.32 1017.77 1017.18 1016.53 1015.84 1015.09 1014.31 1013.50 1012.70 1011.92 1011.20 1010.56
1016.10 1016.76 1017.39 1017.99 1018.54 1019.05 1019.50 1019.90 1020.26 1020.57 1020.83 1021.04 1021.20 1021.31 1021.37 1021.39 1021.37 1021.32 1021.24 1021.16 1021.06 1020.96 1020.84 1020.71 1020.54 1020.33 1020.08 1019.77 1019.41 1018.99 1018.52 1018.00 1017.43 1016.80 1016.12 1015.39 1014.61 1013.80 1012.96 1012.13 1011.33 1010.59 1009.93
1015.66 1016.29 1016.90 1017.48 1018.03 1018.53 1018.98 1019.40 1019.76 1020.08 1020.35 1020.57 1020.73 1020.84 1020.89 1020.89 1020.85 1020.78 1020.69 1020.60 1020.51 1020.42 1020.32 1020.20 1020.07 1019.89 1019.67 1019.39 1019.05 1018.65 1018.19 1017.67 1017.10 1016.46 1015.77 1015.03 1014.24 1013.41 1012.56 1011.72 1010.91 1010.15 1009.47
1015.23 1015.83 1016.42 1016.98 1017.51 1018.01 1018.47 1018.89 1019.27 1019.60 1019.89 1020.12 1020.29 1020.40 1020.45 1020.44 1020.39 1020.30 1020.20 1020.09 1019.98 1019.87 1019.77 1019.66 1019.54 1019.38 1019.18 1018.92 1018.61 1018.24 1017.81 1017.32 1016.77 1016.15 1015.48 1014.75 1013.97 1013.15 1012.31 1011.46 1010.64 1009.87 1009.18
1014.80 1015.39 1015.96 1016.51 1017.03 1017.52 1017.97 1018.40 1018.79 1019.13 1019.43 1019.68 1019.86 1019.98 1020.03 1020.02 1019.95 1019.85 1019.72 1019.59 1019.45 1019.33 1019.21 1019.09 1018.96 1018.80 1018.62 1018.39 1018.11 1017.78 1017.39 1016.95 1016.44 1015.87 1015.23 1014.54 1013.79 1012.99 1012.17 1011.33 1010.51 1009.74 1009.03
1014.43 1015.00 1015.56 1016.09 1016.60 1017.08 1017.52 1017.94 1018.32 1018.67 1018.97 1019.22 1019.41 1019.53 1019.58 1019.57 1019.50 1019.38 1019.23 1019.07 1018.91 1018.76 1018.62 1018.48 1018.35 1018.20 1018.03 1017.82 1017.58 1017.29 1016.95 1016.56 1016.11 1015.60 1015.02 1014.38 1013.68 1012.92 1012.13 1011.32 1010.51 1009.73 1009.02
1014.12 1014.68 1015.23 1015.75 1016.23 1016.69 1017.11 1017.51 1017.87 1018.20 1018.49 1018.74 1018.92 1019.04 1019.09 1019.07 1018.99 1018.86 1018.71 1018.53 1018.36 1018.19 1018.03 1017.88 1017.74 1017.60 1017.44 1017.26 1017.05 1016.81 1016.52 1016.18 1015.79 1015.34 1014.83 1014.25 1013.61 1012.91 1012.15 1011.37 1010.59 1009.82 1009.11
1013.88 1014.43 1014.96 1015.45 1015.91 1016.33 1016.72 1017.08 1017.42 1017.72 1017.98 1018.20 1018.37 1018.48 1018.52 1018.50 1018.42 1018.29 1018.14 1017.96 1017.79 1017.62 1017.46 1017.32 1017.18 1017.05 1016.91 1016.75 1016.57 1016.36 1016.11 1015.83 1015.50 1015.11 1014.66 1014.15 1013.57 1012.92 1012.22 1011.49 1010.73 1009.99 1009.28
Thickness
5654 5651 5648 5646 5643 5640 5638 5636 5635 5633 5632 5631 5629 5627 5626 5624 5623 5621 5619 5616 5613 5610 5608 5606 5606 5605 5605 5604 5603 5603 5602 5602 5602 5603 5603 5604 5605 5606 5607 5608 5610 5611 5613
5650 5647 5644 5641 5638 5635 5633 5630 5629 5627 5625 5624 5622 5620 5619 5617 5616 5614 5612 5609 5605 5602 5599 5597 5596 5595 5594 5593 5592 5592 5591 5591 5591 5592 5592 5593 5594 5595 5596 5598 5599 5601 5603
5646 5642 5639 5636 5633 5630 5627 5625 5622 5620 5618 5616 5614 5613 5611 5609 5608 5606 5603 5601 5598 5594 5590 5587 5585 5584 5583 5582 5581 5581 5580 5580 5580 5581 5581 5582 5583 5584 5586 5587 5589 5590 5592
5641 5637 5634 5630 5627 5624 5621 5617 5615 5612 5609 5607 5605 5604 5602 5601 5599 5597 5594 5592 5589 5585 5581 5578 5575 5573 5571 5571 5570 5570 5569 5569 5569 5570 5571 5572 5572 5574 5575 5577 5578 5580 5582
5637 5632 5628 5625 5621 5617 5613 5610 5607 5604 5600 5598 5596 5595 5594 5592 5590 5588 5585 5582 5579 5575 5572 5568 5565 5563 5561 5559 5559 5559 5558 5558 5559 5559 5560 5560 5561 5563 5564 5566 5568 5569 5571
5632 5627 5623 5619 5615 5610 5606 5603 5599 5596 5592 5589 5587 5586 5585 5585 5582 5579 5575 5572 5568 5565 5561 5558 5556 5553 5550 5548 5547 5547 5547 5547 5547 5547 5548 5548 5550 5551 5553 5554 5556 5558 5560
5626 5621 5617 5612 5608 5603 5599 5595 5591 5587 5583 5580 5576 5573 5575 5576 5573 5568 5565 5561 5558 5554 5551 5548 5545 5542 5540 5537 5535 5534 5534 5534 5534 5535 5535 5536 5537 5539 5540 5542 5544 5546 5548
5621 5615 5610 5605 5600 5596 5591 5587 5582 5577 5573 5570 5565 5559 5556 5558 5559 5557 5553 5550 5547 5543 5540 5537 5534 5531 5528 5526 5524 5522 5521 5521 5521 5521 5522 5523 5524 5526 5527 5529 5531 5533 5536
5615 5609 5604 5599 5594 5589 5583 5578 5574 5568 5562 5559 5555 5548 5542 5538 5539 5542 5541 5538 5535 5531 5528 5526 5523 5520 5517 5515 5512 5510 5508 5508 5508 5508 5509 5509 5510 5512 5513 5515 5517 5519 5522
5608 5602 5597 5592 5587 5581 5575 5571 5566 5560 5554 5548 5544 5540 5535 5530 5524 5523 5526 5526 5524 5521 5518 5515 5512 5510 5507 5504 5501 5499 5497 5495 5495 5495 5495 5495 5496 5497 5499 5500 5502 5504 5507
5601 5596 5591 5585 5579 5574 5568 5563 5557 5552 5546 5540 5534 5529 5525 5520 5515 5509 5509 5511 5511 5509 5507 5505 5502 5500 5497 5494 5491 5488 5486 5484 5482 5481 5481 5481 5481 5482 5483 5485 5486 5488 5490
5594 5589 5584 5578 5572 5566 5561 5555 5549 5543 5537 5532 5526 5520 5514 5508 5503 5499 5496 5497 5498 5498 5497 5495 5493 5490 5488 5485 5481 5478 5475 5472 5469 5468 5467 5466 5466 5466 5467 5468 5469 5471 5473
5587 5582 5577 5571 5565 5559 5553 5547 5540 5534 5529 5523 5517 5511 5506 5501 5496 5491 5487 5485 5485 5487 5487 5485 5483 5480 5477 5474 5470 5467 5463 5460 5457 5454 5452 5451 5450 5450 5450 5451 5452 5453 5455
5583 5576 5570 5564 5558 5552 5545 5539 5532 5526 5520 5514 5509 5503 5497 5493 5488 5482 5477 5472 5471 5473 5473 5472 5471 5468 5464 5461 5457 5453 5450 5445 5442 5439 5437 5435 5434 5433 5432 5432 5433 5434 5435
5578 5570 5564 5557 5551 5544 5538 5531 5524 5518 5512 5506 5500 5494 5489 5484 5479 5474 5469 5463 5456 5456 5461 5460 5457 5455 5450 5446 5441 5437 5433 5429 5425 5422 5419 5416 5415 5413 5412 5412 5412 5412 5414
5572 5564 5557 5550 5543 5537 5530 5523 5517 5511 5504 5498 5492 5486 5481 5476 5471 5466 5461 5455 5449 5445 5448 5449 5444 5440 5435 5430 5424 5419 5414 5409 5405 5401 5397 5395 5392 5390 5389 5388 5388 5388 5390
5565 5557 5550 5543 5536 5529 5522 5515 5509 5503 5496 5490 5484 5478 5473 5468 5462 5457 5452 5446 5440 5435 5435 5440 5431 5425 5419 5412 5407 5400 5394 5389 5384 5379 5375 5372 5369 5367 5365 5364 5364 5364 5365
5557 5551 5543 5536 5529 5522 5515 5508 5501 5495 5488 5482 5476 5470 5464 5459 5453 5448 5442 5436 5431 5425 5420 5421 5418 5409 5401 5394 5388 5382 5375 5369 5363 5358 5354 5351 5348 5345 5343 5342 5341 5342 5343
5550 5543 5535 5528 5521 5514 5507 5500 5494 5487 5480 5474 5467 5461 5455 5449 5443 5437 5431 5425 5419 5414 5406 5402 5401 5393 5384 5376 5369 5364 5357 5350 5343 5338 5335 5332 5329 5326 5324 5323 5323 5323 5323
5542 5535 5527 5520 5513 5506 5499 5492 5485 5478 5471 5465 5458 5452 5446 5439 5433 5427 5421 5414 5407 5399 5391 5384 5381 5376 5368 5359 5349 5343 5340 5334 5328 5322 5318 5314 5311 5309 5307 5306 5306 5306 5306
5534 5526 5519 5512 5505 5497 5490 5482 5475 5468 5461 5455 5449 5443 5437 5431 5425 5418 5411 5402 5393 5384 5375 5367 5363 5357 5351 5340 5331 5325 5321 5319 5315 5307 5303 5301 5296 5295 5292 5290 5291 5291 5292
5524 5517 5510 5503 5496 5490 5483 5476 5468 5461 5454 5446 5440 5434 5428 5422 5415 5409 5401 5393 5383 5372 5361 5353 5347 5340 5334 5324 5317 5311 5305 5302 5302 5296 5288 5289 5283 5282 5280 5280 5281 5282 5283
5515 5508 5501 5494 5488 5481 5475 5468 5461 5453 5445 5438 5431 5424 5419 5412 5404 5396 5389 5382 5372 5360 5349 5340 5332 5326 5318 5313 5305 5300 5293 5288 5286 5282 5276 5278 5274 5272 5272 5272 5273 5276 5277
5507 5500 5493 5486 5479 5473 5466 5459 5452 5444 5435 5428 5420 5413 5405 5399 5391 5382 5375 5368 5358 5348 5337 5327 5319 5314 5307 5301 5293 5288 5283 5279 5278 5272 5264 5264 5266 5264 5266 5266 5267 5270 5272
5498 5491 5484 5477 5470 5463 5457 5449 5442 5433 5425 5417 5410 5402 5393 5386 5380 5371 5363 5354 5346 5337 5327 5318 5311 5304 5299 5293 5286 5279 5273 5268 5267 5265 5258 5254 5257 5258 5260 5261 5263 5265 5267
5489 5483 5475 5468 5461 5453 5447 5439 5431 5422 5413 5406 5398 5390 5381 5373 5366 5357 5347 5338 5331 5324 5316 5309 5301 5294 5288 5282 5276 5269 5263 5258 5256 5255 5253 5249 5249 5248 5253 5257 5257 5258 5261